Location: Wingville
(42.9917°N, 90.4915°W)
Time: 22:28:37
(UTC+00:00)

EO-79 - Pass Details

Date: 26 June 2022
Orbit: 588 x 603 km, 98.0° (Epoch: 17 August)

Event Time Altitude Azimuth Distance (km) Brightness Sun altitude
Rises 08:10:39 0° 7° (N) 2,849 ? -17.6°
Reaches altitude 10° 08:12:52 10° 2° (N) 1,945 ? -17.4°
Maximum altitude 08:16:57 49° 288° (WNW) 781 ? -17.0°
Enters shadow 08:18:33 31° 233° (SW) 1,050 ? -16.9°
